Downstream station:
SHEF ID: ENWK1 CROOKED C NR ENGLEWOOD, KS
STATION TYPE:
Regulating: Stage = 6.50, Flow = 243
PRECIP STAGE RIV-FLOW BAT-LOAD
in ft cfs volt
Ccp-Rev Ccp-Rev Ccp-Rev Ccp-Rev
(US/Central)
01/09 00:00 0.00 2.43 3 12.89
01/09 01:00 0.00 2.44 4 12.89
01/09 02:00 0.00 2.45 4 12.89
01/09 03:00 0.00 2.45 4 12.89
01/09 04:00 0.00 2.45 4 12.89
01/09 05:00 0.00 2.44 4 12.83
01/09 06:00 0.00 2.43 3 12.83
01/09 07:00 0.00 2.42 3 12.77
01/09 08:00 0.00 2.45 4 12.71
01/09 09:00 0.00 2.58 5 14.06
01/09 10:00 0.00 2.44 4 14.82
01/09 11:00 0.00 2.42 3 14.76
01/09 12:00 0.00 2.42 3 14.59
01/09 13:00 0.00 2.43 3 14.53
01/09 14:00 0.00 2.42 3 14.41
01/09 15:00 0.00 2.42 3 14.30
01/09 16:00 0.00 2.42 3 14.30
01/09 17:00 0.00 2.42 3 14.06
01/09 18:00 0.00 2.42 3 13.83
01/09 19:00 0.00 2.41 3 13.24
01/09 20:00 0.00 2.41 3 13.00
01/09 21:00 0.00 2.41 3 12.89
01/09 22:00 0.00 2.42 3 12.89
01/09 23:00 ---- ---- ---- ----